Weather History for Carlsbad, CA

Change the Weather History Date:

Friday, November 23, 2012

  Actual Average Record
Temperature  
Mean Temperature 58 °F -  
Max Temperature 63 °F 63 °F 72 °F (2003)
Min Temperature 53 °F 47 °F 44 °F (2003)
Degree Days  
Heating Degree Days 7    
Growing Degree Days 8 (Base 50)    
Moisture  
Dew Point 54 °F    
Average Humidity 91    
Maximum Humidity 100    
Minimum Humidity 70    
Precipitation  
Precipitation 0.00 in - - ()
Sea Level Pressure  
Sea Level Pressure 30.10 in    
Wind  
Wind Speed 1 mph (West)    
Max Wind Speed 7 mph    
Max Gust Speed -    
Visibility 2 miles    
Events Fog    
Averages and records for this station are not official NWS values.
T = Trace of Precipitation, MM = Missing Value Source: NWS Daily Summary

Daily Weather History Graph

Daily Weather History Graph

Search for Another Location

Airport:

Trip Planner

Search our weather history database for the weather conditions in past years. The results will help you decide how hot, cold, wet, or windy it might be!

Date:

Astronomy

Nov. 23, 2012 Rise Set
Actual Time 6:27 AM PST 4:43 PM PST
Civil Twilight 6:01 AM PST 5:10 PM PST
Nautical Twilight 5:30 AM PST 5:40 PM PST
Astronomical Twilight 5:01 AM PST 6:10 PM PST
Moon 1:49 PM PST (11/23) 2:03 AM PST (11/23)
Length of Visible Light 11h 09m
Length of Day
10h 15m
Waxing Gibbous, 80% of the Moon is Illuminated
Nov 23
Waxing Gibbous
Nov 28
Full
Dec 6
Last Quarter
Dec 13
New
Dec 19
First Quarter

Hourly Weather History & Observations

Time (PST) Temp. Dew Point Humidity Pressure Visibility Wind Dir Wind Speed Gust Speed Precip Events Conditions
12:06 AM 53.6 °F 51.8 °F 94% 30.11 in 2.5 mi Calm Calm - N/A   Clear
12:21 AM 53.6 °F 51.8 °F 94% 30.11 in 3.0 mi Calm Calm - N/A   Clear
12:37 AM 53.6 °F 51.8 °F 94% 30.10 in 2.5 mi Calm Calm - N/A   Clear
12:46 AM 53.6 °F 51.8 °F 94% 30.10 in 3.0 mi Calm Calm - N/A   Clear
12:53 AM 53.1 °F 51.1 °F 93% 30.10 in 3.0 mi Calm Calm - N/A   Clear
1:18 AM 53.6 °F 51.8 °F 94% 30.11 in 4.0 mi Calm Calm - N/A   Scattered Clouds
1:26 AM 53.6 °F 51.8 °F 94% 30.11 in 4.0 mi Calm Calm - N/A   Mostly Cloudy
1:53 AM 55.9 °F 53.1 °F 90% 30.11 in 5.0 mi Calm Calm - N/A   Overcast
2:28 AM 57.2 °F 53.6 °F 88% 30.11 in 5.0 mi Calm Calm - N/A   Overcast
2:53 AM 57.0 °F 54.0 °F 89% 30.11 in 5.0 mi Calm Calm - N/A   Overcast
3:53 AM 57.0 °F 55.0 °F 93% 30.10 in 2.5 mi Calm Calm - N/A   Overcast
4:04 AM 57.2 °F 55.4 °F 94% 30.10 in 1.2 mi Calm Calm - N/A   Overcast
4:25 AM 55.4 °F 53.6 °F 94% 30.10 in 0.8 mi Calm Calm - N/A   Mist
4:53 AM 55.0 °F 54.0 °F 96% 30.09 in 0.2 mi Calm Calm - N/A Fog Fog
5:53 AM 55.0 °F 53.1 °F 93% 30.10 in 0.2 mi Calm Calm - N/A Fog Fog
6:04 AM 53.6 °F 53.6 °F 100% 30.11 in 0.2 mi Calm Calm - N/A Fog Fog
6:53 AM 54.0 °F 52.0 °F 93% 30.12 in 0.1 mi Calm Calm - N/A Fog Fog
7:53 AM 53.1 °F 51.1 °F 93% 30.14 in 0.2 mi Calm Calm - N/A Fog Fog
8:37 AM 53.6 °F 51.8 °F 94% 30.15 in 0.2 mi Calm Calm - N/A Fog Fog
8:49 AM 53.6 °F 51.8 °F 94% 30.15 in 0.8 mi Calm Calm - N/A   Overcast
8:53 AM 54.0 °F 52.0 °F 93% 30.15 in 0.8 mi Calm Calm - N/A   Overcast
8:59 AM 53.6 °F 51.8 °F 94% 30.15 in 2.0 mi Calm Calm - N/A   Overcast
9:08 AM 53.6 °F 51.8 °F 94% 30.15 in 0.8 mi Calm Calm - N/A   Overcast
9:17 AM 55.4 °F 51.8 °F 88% 30.15 in 2.0 mi Calm Calm - N/A   Overcast
9:25 AM 55.4 °F 51.8 °F 88% 30.15 in 5.0 mi Calm Calm - N/A   Overcast
9:46 AM 57.2 °F 53.6 °F 88% 30.15 in 8.0 mi Calm Calm - N/A   Scattered Clouds
9:53 AM 59.0 °F 52.0 °F 78% 30.14 in 9.0 mi Calm Calm - N/A   Partly Cloudy
10:53 AM 63.0 °F 53.1 °F 70% 30.13 in 10.0 mi West 4.6 mph - N/A   Clear
11:53 AM 63.0 °F 54.0 °F 72% 30.10 in 7.0 mi West 4.6 mph - N/A   Clear
12:53 PM 63.0 °F 55.0 °F 75% 30.09 in 5.0 mi West 6.9 mph - N/A   Haze
1:53 PM 63.0 °F 55.0 °F 75% 30.07 in 4.0 mi West 6.9 mph - N/A   Haze
2:53 PM 61.0 °F 55.0 °F 81% 30.06 in 3.0 mi West 4.6 mph - N/A   Haze
3:06 PM 60.8 °F 55.4 °F 82% 30.07 in 2.5 mi Variable 3.5 mph - N/A   Haze
3:53 PM 60.1 °F 55.0 °F 83% 30.06 in 2.5 mi West 3.5 mph - N/A   Haze
4:28 PM 59.0 °F 55.4 °F 88% 30.06 in 1.5 mi West 3.5 mph - N/A   Partly Cloudy
4:37 PM 57.2 °F 55.4 °F 94% 30.06 in 0.8 mi West 3.5 mph - N/A   Mist
4:45 PM 57.2 °F 55.4 °F 94% 30.06 in 0.2 mi Calm Calm - N/A Fog Fog
4:53 PM 57.0 °F 55.0 °F 93% 30.06 in 0.2 mi Calm Calm - N/A Fog Fog
5:02 PM 57.2 °F 55.4 °F 94% 30.06 in 0.5 mi Calm Calm - N/A Fog Fog
5:40 PM 57.2 °F 55.4 °F 94% 30.07 in 0.2 mi West 3.5 mph - N/A Fog Fog
5:53 PM 57.0 °F 55.9 °F 96% 30.07 in 0.5 mi West 3.5 mph - N/A Fog Fog
6:04 PM 57.2 °F 55.4 °F 94% 30.08 in 0.2 mi Calm Calm - N/A Fog Fog
6:53 PM 57.0 °F 55.9 °F 96% 30.09 in 0.2 mi Calm Calm - N/A Fog Fog
7:53 PM 57.0 °F 55.9 °F 96% 30.09 in 0.2 mi Calm Calm - N/A Fog Fog
8:53 PM 55.9 °F 55.0 °F 97% 30.10 in 0.2 mi Calm Calm - N/A Fog Fog
9:53 PM 55.9 °F 54.0 °F 93% 30.09 in 0.2 mi Calm Calm - N/A Fog Fog
10:53 PM 55.9 °F 55.0 °F 97% 30.09 in 0.2 mi Calm Calm - N/A Fog Fog
11:53 PM 55.0 °F 53.1 °F 93% 30.09 in 0.2 mi Calm Calm - N/A Fog Fog